Weather History for Gillette, WY

Change the Weather History Date:

Sunday, May 19, 2013

  Actual Average Record
Temperature  
Mean Temperature 53 °F 54 °F  
Max Temperature 58 °F 67 °F 91 °F (1992)
Min Temperature 48 °F 41 °F 25 °F (1931)
Degree Days  
Heating Degree Days 12 11  
Month to date heating degree days 221 268  
Since 1 July heating degree days 7183 7284  
Cooling Degree Days 0 0  
Month to date cooling degree days 8 0  
Year to date cooling degree days 8 0  
Growing Degree Days 2 (Base 50)    
Moisture  
Dew Point 49 °F    
Average Humidity 87    
Maximum Humidity 96    
Minimum Humidity 77    
Precipitation  
Precipitation 0.19 in 0.08 in 0.99 in (1941)
Month to date precipitation 0.60 1.42  
Year to date precipitation 3.72 4.63  
Sea Level Pressure  
Sea Level Pressure 29.81 in    
Wind  
Wind Speed 16 mph (NNW)    
Max Wind Speed 28 mph    
Max Gust Speed 35 mph    
Visibility 9 miles    
Events Rain    
T = Trace of Precipitation, MM = Missing Value Source: NWS Daily Summary

Daily Weather History Graph

Daily Weather History Graph

Search for Another Location

Airport:

Trip Planner

Search our weather history database for the weather conditions in past years. The results will help you decide how hot, cold, wet, or windy it might be!

Date:

Astronomy

May. 19, 2013 Rise Set
Actual Time 5:30 AM MDT 8:27 PM MDT
Civil Twilight 4:56 AM MDT 9:01 PM MDT
Nautical Twilight 4:12 AM MDT 9:45 PM MDT
Astronomical Twilight 3:21 AM MDT 10:37 PM MDT
Moon 2:21 PM MDT (5/19) 2:09 AM MDT (5/19)
Length of Visible Light 16h 05m
Length of Day
14h 56m
Waxing Gibbous, 66% of the Moon is Illuminated
May 19
Waxing Gibbous
May 24
Full
May 31
Last Quarter
Jun 8
New
Jun 16
First Quarter

Hourly Weather History & Observations

Time (MDT) Temp. Dew Point Humidity Pressure Visibility Wind Dir Wind Speed Gust Speed Precip Events Conditions
12:06 AM 53.6 °F 50.0 °F 88% 29.87 in 10.0 mi NNW 8.1 mph - N/A   Overcast
12:36 AM 51.8 °F 48.2 °F 88% 29.87 in 10.0 mi North 12.7 mph - N/A   Overcast
12:50 AM 51.8 °F 48.2 °F 88% 29.87 in 10.0 mi NNW 11.5 mph - N/A   Overcast
12:53 AM 52.0 °F 48.9 °F 89% 29.80 in 10.0 mi NNW 12.7 mph - N/A   Overcast
1:50 AM 51.8 °F 48.2 °F 88% 29.85 in 10.0 mi NNW 11.5 mph - N/A   Overcast
1:53 AM 52.0 °F 48.9 °F 89% 29.78 in 10.0 mi NNW 12.7 mph - N/A   Overcast
2:45 AM 51.8 °F 48.2 °F 88% 29.85 in 10.0 mi NNW 13.8 mph - N/A   Overcast
2:53 AM 52.0 °F 48.9 °F 89% 29.77 in 10.0 mi NNW 9.2 mph - N/A   Overcast
3:07 AM 51.8 °F 48.2 °F 88% 29.85 in 9.0 mi NNW 10.4 mph - 0.00 in Rain Light Rain
3:29 AM 51.8 °F 48.2 °F 88% 29.85 in 10.0 mi NNW 9.2 mph - 0.01 in Rain Light Rain
3:53 AM 51.1 °F 50.0 °F 96% 29.78 in 10.0 mi WNW 11.5 mph - 0.01 in   Overcast
4:18 AM 51.8 °F 48.2 °F 88% 29.84 in 10.0 mi WNW 10.4 mph - N/A   Overcast
4:53 AM 51.1 °F 48.9 °F 92% 29.76 in 10.0 mi WNW 8.1 mph - N/A   Overcast
5:34 AM 50.0 °F 48.2 °F 94% 29.82 in 10.0 mi WNW 9.2 mph - N/A   Scattered Clouds
5:53 AM 50.0 °F 48.2 °F 94% 29.82 in 10.0 mi WNW 12.7 mph - N/A   Scattered Clouds
6:39 AM 50.0 °F 48.2 °F 94% 29.82 in 10.0 mi NW 15.0 mph - N/A   Overcast
6:53 AM 50.0 °F 48.9 °F 96% 29.75 in 10.0 mi WNW 16.1 mph - N/A   Overcast
7:01 AM 50.0 °F 48.2 °F 94% 29.82 in 10.0 mi WNW 17.3 mph - N/A   Overcast
7:20 AM 51.8 °F 48.2 °F 88% 29.83 in 10.0 mi NW 16.1 mph 21.9 mph N/A   Overcast
7:32 AM 51.8 °F 48.2 °F 88% 29.84 in 10.0 mi NW 15.0 mph - N/A   Overcast
7:53 AM 51.1 °F 48.9 °F 92% 29.78 in 10.0 mi NW 12.7 mph - N/A   Overcast
8:25 AM 51.8 °F 48.2 °F 88% 29.83 in 10.0 mi NW 13.8 mph - N/A   Overcast
8:53 AM 53.1 °F 48.9 °F 86% 29.77 in 10.0 mi NW 12.7 mph - N/A   Overcast
9:01 AM 53.6 °F 48.2 °F 82% 29.82 in 10.0 mi NW 13.8 mph - N/A   Overcast
9:53 AM 54.0 °F 48.9 °F 83% 29.75 in 10.0 mi NW 17.3 mph 21.9 mph N/A   Overcast
10:53 AM 54.0 °F 48.9 °F 83% 29.75 in 10.0 mi NW 18.4 mph 23.0 mph N/A   Overcast
11:53 AM 57.9 °F 50.0 °F 75% 29.73 in 10.0 mi WNW 17.3 mph - 0.00 in   Overcast
12:53 PM 55.4 °F 50.0 °F 82% 29.79 in 10.0 mi NW 18.4 mph 26.5 mph N/A   Overcast
1:07 PM 55.4 °F 50.0 °F 82% 29.79 in 10.0 mi NW 20.7 mph 25.3 mph N/A   Overcast
1:24 PM 53.6 °F 51.8 °F 94% 29.80 in 2.5 mi NW 19.6 mph 25.3 mph 0.01 in Rain Rain
1:37 PM 53.6 °F 51.8 °F 94% 29.80 in 9.0 mi NNW 18.4 mph 23.0 mph 0.03 in Rain Light Rain
1:50 PM 55.4 °F 51.8 °F 88% 29.79 in 10.0 mi NNW 18.4 mph - 0.03 in   Overcast
1:51 PM 55.4 °F 51.8 °F 88% 29.79 in 10.0 mi NNW 18.4 mph - 0.03 in   Overcast
1:53 PM 55.4 °F 51.8 °F 88% 29.79 in 10.0 mi NNW 19.6 mph 25.3 mph N/A   Overcast
2:14 PM 55.4 °F 51.8 °F 88% 29.79 in 10.0 mi NW 18.4 mph - N/A   Overcast
2:21 PM 55.4 °F 51.8 °F 88% 29.79 in 10.0 mi NW 12.7 mph 23.0 mph N/A   Overcast
2:33 PM 53.6 °F 50.0 °F 88% 29.80 in 2.0 mi North 13.8 mph 27.6 mph 0.05 in Rain Heavy Rain
2:45 PM 53.6 °F 51.8 °F 94% 29.80 in 7.0 mi North 15.0 mph - 0.08 in Rain Light Rain
2:53 PM 54.0 °F 52.0 °F 93% 29.75 in 10.0 mi North 16.1 mph 24.2 mph 0.08 in Rain Light Rain
3:24 PM 53.6 °F 51.8 °F 94% 29.81 in 10.0 mi North 17.3 mph - 0.00 in   Overcast
3:40 PM 53.6 °F 51.8 °F 94% 29.81 in 2.5 mi North 16.1 mph - 0.02 in Rain Light Rain
3:48 PM 55.4 °F 51.8 °F 88% 29.81 in 6.0 mi North 17.3 mph 21.9 mph 0.02 in Rain Light Rain
3:53 PM 54.0 °F 51.1 °F 90% 29.75 in 10.0 mi North 20.7 mph 26.5 mph 0.02 in   Overcast
4:05 PM 53.6 °F 51.8 °F 94% 29.82 in 10.0 mi North 19.6 mph - N/A   Overcast
4:16 PM 51.8 °F 50.0 °F 94% 29.82 in 2.5 mi NNE 18.4 mph - N/A   Overcast
4:24 PM 53.6 °F 51.8 °F 94% 29.82 in 3.0 mi North 17.3 mph - 0.01 in   Overcast
4:36 PM 53.6 °F 51.8 °F 94% 29.82 in 10.0 mi North 19.6 mph - 0.01 in   Overcast
4:45 PM 53.6 °F 51.8 °F 94% 29.82 in 4.0 mi North 17.3 mph - 0.01 in   Overcast
4:47 PM 51.8 °F 51.8 °F 100% 29.82 in 2.5 mi North 18.4 mph - 0.01 in   Overcast
4:53 PM 52.0 °F 50.0 °F 93% 29.77 in 2.5 mi North 17.3 mph 25.3 mph 0.02 in   Overcast
5:00 PM 51.8 °F 50.0 °F 94% 29.82 in 9.0 mi North 23.0 mph 26.5 mph N/A   Overcast
5:21 PM 51.8 °F 48.2 °F 88% 29.83 in 9.0 mi North 18.4 mph - 0.00 in Rain Light Rain
5:53 PM 50.0 °F 48.9 °F 96% 29.80 in 9.0 mi North 18.4 mph - 0.01 in   Overcast
6:17 PM 50.0 °F 48.2 °F 94% 29.85 in 9.0 mi North 19.6 mph 25.3 mph 0.00 in Rain Light Rain
6:53 PM 50.0 °F 48.9 °F 96% 29.81 in 8.0 mi North 18.4 mph 26.5 mph 0.00 in   Overcast
7:01 PM 50.0 °F 48.2 °F 94% 29.86 in 9.0 mi NNW 18.4 mph 26.5 mph N/A   Overcast
7:24 PM 50.0 °F 48.2 °F 94% 29.86 in 10.0 mi NNW 15.0 mph - N/A   Overcast
7:53 PM 50.0 °F 46.9 °F 89% 29.83 in 10.0 mi NNW 16.1 mph - N/A   Overcast
8:53 PM 50.0 °F 46.0 °F 86% 29.83 in 10.0 mi NNW 13.8 mph - N/A   Overcast
9:53 PM 50.0 °F 46.4 °F 87% 29.89 in 10.0 mi NNW 15.0 mph - N/A   Overcast
10:14 PM 50.0 °F 46.4 °F 87% 29.89 in 10.0 mi NNW 19.6 mph 25.3 mph N/A   Overcast
10:41 PM 48.2 °F 44.6 °F 87% 29.88 in 10.0 mi NNW 15.0 mph 27.6 mph N/A   Overcast
10:53 PM 48.9 °F 44.1 °F 83% 29.83 in 10.0 mi NNW 13.8 mph - N/A   Overcast
11:53 PM 48.9 °F 44.1 °F 83% 29.81 in 10.0 mi NW 18.4 mph - N/A   Overcast